Miscellaneous Local Product
Issued by NWS Hastings, NE

Home | Current Version | Previous Version | Text Only | Print | Product List | Glossary Off
Versions: 1 2 3 4 5 6 7 8 9 10 11 12 13 14 15 16 17 18 19 20 21 22 23 24 25 26 27 28 29 30 31 32 33 34 35 36 37 38 39 40 41 42 43 44 45 46 47 48 49 50

795
AXUS43 KGID 031802
MISGRI

GID CWA HOURLY WEATHER ROUNDUP
NATIONAL WEATHER SERVICE HASTINGS NE
100 PM CDT TUE MAY 03 2016

NOTE: "FAIR" INDICATES FEW OR NO CLOUDS BELOW 12,000 FEET WITH NO
SIGNIFICANT WEATHER AND/OR OBSTRUCTIONS TO VISIBILITY.

...SOUTH CENTRAL NEBRASKA...

CITY           SKY/WX    TMP DP  RH WIND       PRES   REMARKS
GRAND ISLAND   SUNNY     64  36  35 NW6       30.07F
HASTINGS       SUNNY     63  39  41 CALM      30.06F
KEARNEY        SUNNY     63  39  42 CALM      30.09S
ORD            SUNNY     63  40  42 W9        30.05F
YORK           SUNNY     64  39  39 W5        30.06F
AURORA         SUNNY     64  41  43 CALM      30.06F
LEXINGTON      SUNNY     61  38  42 CALM      30.09S
HOLDREGE       MOSUNNY   61  38  41 CALM      30.08S
HEBRON         SUNNY     65  37  35 CALM      30.06F

...NEBRASKA PANHANDLE...

CITY           SKY/WX    TMP DP  RH WIND       PRES   REMARKS
CHADRON        SUNNY     68  31  25 N13       30.13F
ALLIANCE       SUNNY     64  33  31 N16       30.13S
SCOTTSBLUFF    SUNNY     68  35  29 NW18G24   30.14F
SIDNEY         SUNNY     63  37  38 N17G23    30.16F

...WESTERN AND NORTH CENTRAL NEBRASKA...

CITY           SKY/WX    TMP DP  RH WIND       PRES   REMARKS
VALENTINE      SUNNY     64  38  38 NW10G22   30.07F
AINSWORTH      SUNNY     62  40  44 NW10G20   30.08S
ONEILL         SUNNY     63  42  46 W9        30.07S
BROKEN BOW     SUNNY     62  42  47 SW5       30.08F
IMPERIAL       SUNNY     59  43  55 N16       30.13F
NORTH PLATTE   SUNNY     61  45  55 W7        30.10F
MCCOOK         PTSUNNY   61  45  55 N10       30.11S

...EASTERN NEBRASKA...

CITY           SKY/WX    TMP DP  RH WIND       PRES   REMARKS
NORFOLK        SUNNY     66  39  37 W15       30.02F
SO SIOUX CITY  MOSUNNY   65  46  50 NW13      29.99F
TEKAMAH        MOSUNNY   66  42  41 W10G20    30.01F
COLUMBUS       SUNNY     66  41  39 SW7       30.05F
ALBION         MOSUNNY   65  40  38 W7        30.04F
OMAHA EPPLEY   MOSUNNY   67  41  38 W6        30.02F
OFFUTT AFB     SUNNY     65  41  41 W10       30.02F
MILLARD        MOSUNNY   65  41  41 W8        30.04F
LINCOLN        SUNNY     67  39  35 VRB3      30.05F
NEBRASKA CITY  MOSUNNY   64  41  42 W7        30.05F
BEATRICE       SUNNY     65  41  41 W5        30.05F
FALLS CITY     PTSUNNY   67  43  41 MISG      30.04F

...NORTHERN KANSAS...

CITY           SKY/WX    TMP DP  RH WIND       PRES   REMARKS
GOODLAND       MOSUNNY   59  39  47 N15       30.13S
HILL CITY      MOSUNNY   63  43  48 VRB3      30.09F
NORTON         MOCLDY    59  39  47 NW9       30.09
PHILLIPSBURG   MOSUNNY   64  43  45 CALM      30.07
SMITH CENTER   SUNNY     64  45  48 E3        30.07
BELOIT         SUNNY     64  41  42 E9        30.04
HAYS           SUNNY     63  39  42 N7        30.07F
RUSSELL        SUNNY     65  42  43 W7        30.04F
CONCORDIA      SUNNY     68  43  40 SE8       30.04F
SALINA         SUNNY     70  48  45 S9        30.04F
TOPEKA         MOSUNNY   66  40  38 MISG      30.06F



USA.gov is the U.S. government's official web portal to all federal, state and local government web resources and services.